Flag for U.S.A. Weather past 2 weeks in Mesquite, Texas, U.S.A.

Now
81 °F

Clear.


Feels Like: 84 °F
Forecast: 79 / 100 °F
Wind: 8 mph from South

Location: Mesquite Metro Airport

Current Time: Aug 5, 2015 at 5:33:25 AM

Latest Report: Aug 5, 2015 at 4:55 AM


Visibility: 10 mi

Pressure: 29.94 "Hg

Humidity: 69%

Dew point: 69 °F

Location of MesquiteLocation

Historic Weather in Mesquite — Graph

°F

Mesquite temperature yesterday

Maximum temperature yesterday: 99 °F (at 3:50 PM)
Minimum temperature yesterday: 74 °F (at 5:35 AM)
Average temperature yesterday: 84 °F

Past Weeks' High & Low Weather Summary

 TemperatureHumidityPressure
High100 °F (Jul 30, 3:50 PM)94% (Jul 21, 6:50 AM)30.10 "Hg (Jul 21, 6:50 AM)
Low72 °F (Aug 2, 6:50 AM)20% (Aug 2, 5:50 PM)29.81 "Hg (Jul 21, 6:50 PM)
Average84 °F57%29.95 "Hg
* Reported Jul 21 4:15 AM — Aug 5 4:35 AM, Mesquite, Weather by CustomWeather, © 2015

Note: Actual official high and low records may vary slightly from our data, if they occured in-between our weather recording intervals... More about our weather records

Advertising

Mesquite weather history for previous 24 hours

 ConditionsComfort  
Time TempWeatherWind HumidityBarometerVisibility
4:35 AM
Wed, Aug 5
81 °FClear.7 mph67%29.94 "Hg10 mi
4:15 AM81 °FClear.9 mph67%29.94 "Hg10 mi
3:55 AM81 °FClear.8 mph68%29.94 "Hg10 mi
3:35 AM81 °FClear.9 mph67%29.94 "Hg10 mi
3:15 AM81 °FClear.9 mph68%29.94 "Hg10 mi
2:55 AM81 °FClear.7 mph68%29.93 "Hg10 mi
2:35 AM81 °FClear.6 mph68%29.93 "Hg10 mi
2:15 AM82 °FClear.5 mph66%29.93 "Hg10 mi
1:55 AM82 °FClear.7 mph65%29.93 "Hg10 mi
1:35 AM82 °FClear.7 mph65%29.94 "Hg10 mi
1:15 AM83 °FClear.6 mph61%29.94 "Hg10 mi
12:55 AM83 °FClear.6 mph59%29.94 "Hg10 mi
12:35 AM83 °FClear.6 mph59%29.94 "Hg10 mi
12:15 AM83 °FClear.5 mph59%29.94 "Hg10 mi
11:35 PM
Tue, Aug 4
85 °FClear.5 mph54%29.93 "Hg10 mi
10:55 PM86 °FClear.7 mph50%29.92 "Hg10 mi
10:15 PM87 °FClear.7 mph47%29.91 "Hg10 mi
9:55 PM88 °FClear.6 mph44%29.91 "Hg10 mi
9:35 PM89 °FClear.5 mph43%29.91 "Hg10 mi
9:15 PM89 °FSunny.6 mph41%29.90 "Hg10 mi
8:55 PM90 °FSunny.6 mph40%29.89 "Hg10 mi
8:35 PM90 °FSunny.7 mph39%29.89 "Hg10 mi
8:15 PM91 °FSunny.5 mph38%29.89 "Hg10 mi
7:50 PM93 °FSunny.7 mph36%29.88 "Hg10 mi
6:50 PM97 °FSunny.8 mph30%29.89 "Hg10 mi
5:50 PM97 °FSunny.10 mph30%29.89 "Hg10 mi
4:50 PM97 °FSunny.10 mph30%29.90 "Hg10 mi
3:50 PM99 °FScattered clouds.9 mph29%29.91 "Hg10 mi
2:50 PM97 °FScattered clouds.7 mph28%29.93 "Hg10 mi
1:50 PM97 °FScattered clouds.14 mph30%29.95 "Hg10 mi
12:50 PM93 °FScattered clouds.13 mph36%29.97 "Hg10 mi
11:50 AM93 °FScattered clouds.12 mph41%29.98 "Hg10 mi
10:50 AM90 °FSunny.5 mph52%29.99 "Hg10 mi
9:50 AM84 °FSunny.5 mph66%29.98 "Hg10 mi
8:50 AM79 °FSunny.5 mph74%29.97 "Hg10 mi
7:50 AM77 °FSunny.No wind79%29.96 "Hg10 mi
6:50 AM75 °FClear.No wind74%29.94 "Hg10 mi
6:15 AM75 °FClear.No wind74%29.93 "Hg10 mi
5:55 AM74 °FClear.3 mph77%29.92 "Hg10 mi
5:35 AM74 °FClear.5 mph80%29.92 "Hg10 mi
5:15 AM74 °FClear.6 mph75%29.92 "Hg10 mi
Weather by CustomWeather, © 2015

See weather overviewHow to use our weather pages